NOAA 16 DEB, 41502

Orbit data source: Space-Track

NOAA 16 DEB, 41502 is space debris in SSO originally from a launch on Thu, 21 Sep 2000 UTC launched from the Air Force Western Test Range (AFWTR). Debris objects in space refer to the collection of defunct objects orbiting the Earth. Examples of debris include non-operational satellites, rocket bodies, and fragments generated from explosions, collisions, or faulty payload assembly.

Loading next visibility...
Identifier
41502, 2000-055MA
Orbit
SSO
Country
Flag of USUS
Related business
Manufacturer
Unknown
Mission
Spacecraft
Bus & Motor
Unknown
Mass
Unknown
Launch date (UTC)
2000-09-21 (25 years ago)
Launch vehicle
Unknown
Launch site
Air Force Western Test Range (AFWTR)
Object type
Payload
Rocket body
Debris
Shape & HBR
Unknown shape, 0.1 m
Radar Cross Section
Small (<0.1 m²)

Expand to show TLE details & history
Last TLE update: 1 day ago

TLE from 1 day ago
0 NOAA 16 DEB
1 41502U 00055MA  26073.60777792  .00003479  00000-0  15425-2 0  9997
2 41502  98.6550 126.0447 0009000  50.6510 309.5465 14.23678797517871
Epoch: 2026-03-14T14:35Z
TLE epoch observation values (Epoch: 2026-03-14T14:35:12.012Z)
Latitude
-0°
Longitude
95.01813°
Altitude
811.741 km
Speed
7.45 km/s
True Right ascension
08h 24m 10s
True Declination
0° 00' 00"
Sunlit
Object was in full shadow at epoch
Visualization orbit readout
Latitude
Unknown
Longitude
Unknown
Altitude
Unknown
Speed
Unknown
Apparent Right ascension
Unknown
Apparent Declination
Unknown
Sunlit
N/A
Visualization observer readout
Local Sidereal Time
20:26:26
Azimuth
Unknown
Elevation
Unknown
Doppler factor
Unknown
Orbital elements
Apogee altitude
816.559 km
Perigee altitude
803.62 km
Semi-major axis
7,188.226 km
Eccentricity
0.0009
Inclination
98.655°
RAAN
126.0447°
Arg. of periapsis
50.651°
True anomaly
309.46692°
Mean anomaly
309.5465°
Eccentric anomaly
309.50671°
Mean motion
3.56132 °/min
Orbital period
101.09 mins
BSTAR
0.0015425
Loading maneuver chart data...
Computing Atmospheric mass density...
Loading historical data...
Loading historical data...
Loading historical data...
Loading historical data...
Loading historical data...
Loading historical data...
Loading historical data...

Documentation

Showing up to 5 results
|